Temperature
16 16 16 17 17 17 17 17 17 17 17 16 16 16 16 16 16 16 16 16 16 16 16 16 15 16 16 15 15 15 15 15 15 15 15 15 15 15 15 15 15 15 15
17 16 16 16 17 17 17 17 17 17 16 16 16 16 16 16 16 16 16 16 16 16 16 16 15 16 16 16 15 15 15 15 15 15 15 15 15 14 15 15 15 15 15
17 16 16 16 16 17 17 17 17 16 16 16 16 16 16 16 16 16 16 16 16 15 15 15 15 15 16 15 15 15 15 15 15 15 15 15 14 14 14 15 15 15 15
16 16 16 16 16 16 17 16 16 16 16 16 16 16 16 16 16 16 15 15 15 15 15 15 15 15 15 15 15 15 15 15 15 15 15 14 14 14 14 14 14 15 15
16 16 16 16 16 16 16 16 16 16 16 16 16 16 16 16 15 15 15 15 15 15 15 15 15 15 15 15 15 15 14 14 14 14 14 14 14 14 14 14 14 14 14
16 15 16 16 16 16 16 16 16 16 16 16 16 16 16 15 15 15 15 15 15 15 15 15 15 15 15 15 15 14 14 14 14 14 14 14 14 14 14 14 14 14 14
15 15 15 15 16 16 16 16 16 16 16 16 15 15 15 15 15 15 15 15 15 15 15 15 15 15 15 15 14 14 14 14 14 14 14 14 14 14 14 14 14 14 14
15 15 15 15 15 15 16 16 16 15 15 15 15 15 15 15 15 15 15 15 15 15 15 15 15 15 15 14 14 14 14 14 14 14 14 14 14 14 14 14 14 14 14
15 15 15 15 15 15 15 15 15 15 15 15 15 15 15 15 15 15 15 15 15 15 15 15 14 14 14 14 14 14 14 14 14 13 13 13 13 13 13 14 14 14 14
14 14 14 15 15 15 15 15 15 15 15 15 15 15 15 15 15 15 15 15 15 15 15 15 14 14 14 14 14 14 14 13 13 13 13 13 13 13 13 13 13 13 13
13 14 14 14 14 14 14 14 15 15 15 15 15 15 15 15 15 15 15 14 14 14 14 14 14 14 14 14 14 14 13 13 13 13 13 13 13 13 13 13 13 13 13
13 13 14 14 14 14 14 14 14 14 14 14 14 14 14 14 14 14 14 14 14 14 14 14 14 14 14 14 13 13 13 13 13 13 13 12 12 12 12 12 12 12 12
13 13 13 13 14 14 14 14 14 14 14 14 14 14 14 14 14 14 14 14 14 14 14 14 14 14 14 13 13 13 13 13 13 13 12 12 12 12 12 11 11 11 12
12 12 13 13 13 13 14 14 14 14 14 14 14 14 14 14 14 14 14 14 14 14 14 14 13 13 13 13 13 13 13 12 12 12 12 12 12 11 11 11 11 11 11
12 12 12 13 13 13 13 13 13 13 13 13 13 13 13 13 13 13 14 13 13 13 13 13 13 13 13 13 13 13 12 12 12 12 12 11 11 11 11 11 11 10 10
12 12 12 12 12 12 13 13 13 13 13 13 13 13 13 13 13 13 13 13 13 13 13 13 13 13 13 12 12 12 12 12 12 11 11 11 11 11 11 10 10 10 10
12 12 12 12 12 12 12 13 13 13 13 12 12 13 12 12 13 13 13 13 13 13 13 12 12 12 12 12 12 12 12 11 11 11 11 10 10 10 10 10 10 10 10
11 11 12 12 12 12 12 12 12 12 12 12 12 12 12 12 12 12 12 12 12 12 12 12 12 12 12 12 12 11 11 11 11 10 10 10 10 10 10 10 10 10 9
11 11 11 11 11 11 11 12 12 12 12 12 12 12 12 12 12 12 12 12 12 12 12 12 12 12 11 11 11 11 11 10 10 10 10 9 9 9 9 9 9 9 9
11 11 11 11 11 11 11 11 11 11 11 11 11 11 11 11 11 11 11 11 11 11 11 11 11 11 11 11 11 10 10 10 9 9 9 9 9 9 9 9 8 8 8
10 10 10 10 10 10 11 11 11 11 11 11 11 11 11 11 11 11 11 11 11 11 11 11 11 11 10 10 10 10 9 9 9 9 9 8 8 8 8 8 8 8 8
10 10 10 10 10 10 10 10 10 10 10 10 10 10 10 10 10 10 10 10 10 10 10 10 10 10 10 10 10 9 9 9 9 9 8 8 8 8 8 8 7 7 7
10 10 10 10 10 10 10 10 10 10 10 10 10 10 10 10 10 10 10 10 10 10 10 10 10 9 9 9 9 9 9 9 8 8 8 8 8 7 7 7 7 7 7
10 10 10 10 10 10 10 10 10 10 10 10 10 10 10 9 9 9 9 9 9 9 9 9 9 9 9 9 9 8 8 8 8 8 7 7 7 7 7 7 7 6 6
9 9 10 10 10 9 9 9 9 9 10 10 9 9 9 9 9 9 9 9 9 9 9 9 8 8 8 8 8 8 8 7 7 7 7 7 7 7 7 6 6 6 6
9 9 9 9 9 9 9 9 9 9 9 9 9 9 9 9 9 9 9 8 8 8 8 8 8 8 8 8 7 7 7 7 7 6 6 6 7 7 6 6 6 6 5
Wind_Speed
6 10 16 15 15 15 16 15 15 14 13 13 13 13 13 13 13 12 12 11 11 11 11 11 11 11 10 10 10 10 10 10 10 9 9 8 8 8 9 9 9 9 10
9 13 17 16 16 15 16 16 15 14 14 13 13 13 13 12 12 12 11 11 11 10 10 10 10 10 10 9 9 9 9 8 8 7 7 7 6 7 8 8 8 7 8
11 13 16 16 16 16 16 16 15 15 14 14 13 13 12 12 12 11 11 10 10 10 10 10 9 9 9 9 8 8 7 7 7 6 6 5 5 6 7 7 7 7 6
10 12 15 17 16 16 16 16 15 15 14 13 13 12 12 12 11 11 11 10 10 10 9 9 8 8 7 8 8 8 7 7 7 6 5 3 4 6 6 6 6 6 5
9 10 14 17 16 16 16 15 15 15 14 14 13 12 12 12 11 11 10 10 9 9 8 8 7 7 7 7 6 7 7 7 7 6 5 4 3 5 6 6 5 5 4
7 9 14 17 17 16 16 15 14 14 14 14 13 12 11 11 11 11 10 10 9 9 8 8 7 6 6 6 6 6 6 6 6 6 4 3 3 4 5 5 5 4 4
7 8 12 16 17 16 16 15 14 14 14 13 13 12 12 11 11 11 10 10 9 8 8 7 6 6 5 5 5 5 6 6 5 4 3 3 2 4 5 4 3 3 3
8 9 11 16 17 16 16 15 14 13 13 13 12 12 11 11 11 10 10 9 8 8 7 6 6 5 4 4 4 5 6 6 5 4 3 3 2 4 4 3 3 3 3
8 8 9 12 15 16 15 15 14 13 13 12 12 11 11 11 10 10 9 8 8 7 7 5 5 4 4 4 4 5 6 7 6 4 3 3 3 4 4 4 3 3 3
7 7 8 9 11 13 14 14 14 13 12 12 11 11 11 11 10 9 8 8 7 7 6 5 4 4 4 4 5 5 6 7 7 6 4 3 4 4 5 5 4 4 4
6 5 7 7 9 11 12 13 12 12 11 11 10 11 10 9 8 8 7 8 7 6 6 5 5 5 5 5 6 6 7 7 6 5 4 4 5 6 6 6 5 5 5
5 5 5 7 7 9 10 10 10 9 10 9 9 9 9 8 8 7 7 8 7 7 6 6 6 6 6 5 5 6 5 6 6 4 4 5 6 6 6 7 7 7 6
5 5 5 6 6 7 7 8 7 8 8 8 8 8 8 8 8 7 7 7 7 7 7 6 7 6 5 5 5 5 5 5 5 4 4 6 6 7 7 7 8 8 8
6 5 5 6 6 6 7 7 7 6 6 6 7 8 7 6 5 5 5 6 6 6 6 6 5 5 5 5 5 4 5 4 5 5 6 7 7 8 8 7 7 8 8
6 5 5 5 5 5 7 6 6 6 6 7 8 8 8 6 4 4 4 5 5 5 5 4 5 5 5 5 5 5 5 5 6 7 7 9 9 9 8 8 8 8 8
6 5 5 6 6 5 5 5 5 6 7 8 7 8 8 7 5 4 4 4 4 5 4 4 4 3 3 4 4 5 5 5 6 7 8 9 10 10 10 9 10 10 10
6 5 6 6 6 5 5 6 6 6 7 7 7 8 8 8 7 5 3 3 4 5 5 5 5 5 3 3 3 4 4 5 6 7 8 8 8 9 10 9 9 10 10
7 6 6 6 6 5 5 6 6 6 7 6 7 7 8 8 7 6 3 3 4 6 5 3 3 4 3 3 2 2 3 4 5 6 7 8 8 8 9 10 10 10 10
6 7 6 6 6 6 6 6 6 6 6 5 6 6 7 7 7 6 4 4 6 5 4 3 4 3 2 2 2 2 2 2 3 5 6 7 7 7 8 8 9 9 10
6 6 6 7 6 6 5 5 5 5 4 5 5 6 6 6 7 6 5 5 5 4 4 3 4 3 2 2 2 2 2 2 2 3 4 5 6 6 7 7 7 7 8
5 5 6 6 5 5 4 4 3 3 2 3 4 5 6 6 6 6 4 4 4 3 3 3 3 4 3 2 2 2 3 3 2 2 2 3 4 5 6 6 6 6 6
6 5 5 6 5 5 3 3 3 3 2 2 2 4 5 5 5 5 4 3 3 3 4 4 3 2 2 3 2 2 1 2 2 1 1 2 2 3 3 4 4 4 5
6 6 6 5 5 5 5 4 4 3 3 2 2 1 2 4 4 5 4 4 3 3 2 3 3 3 1 2 2 2 2 2 1 2 1 1 1 1 1 1 2 2 3
5 5 5 5 5 5 5 5 5 3 2 2 2 1 1 3 3 4 4 4 3 2 2 2 2 1 2 1 2 2 0 2 1 1 2 1 1 1 1 1 0 1 2
5 5 5 5 5 5 5 5 5 3 2 2 1 2 1 1 2 3 3 3 2 2 2 2 2 1 1 1 0 1 1 1 1 1 2 3 3 2 2 2 1 0 0
5 4 5 5 4 4 5 5 5 5 4 3 2 1 1 0 0 1 2 2 2 1 1 1 1 1 1 1 1 1 1 1 0 1 1 2 3 3 2 1 1 1 1
Wind_Direction
166 167 157 151 145 141 137 133 130 125 122 118 116 114 113 110 108 106 104 102 99 99 100 96 94 94 91 88 87 86 84 81 77 74 71 72 78 84 84 81 78 75 78
162 161 155 150 144 141 138 136 132 127 123 121 119 115 115 114 111 108 107 104 100 98 100 97 95 95 92 90 88 86 82 79 73 68 65 68 75 86 87 87 86 81 81
149 155 154 149 143 141 139 137 133 130 127 124 121 119 118 117 114 112 109 106 102 99 97 97 95 94 91 87 86 84 80 76 68 64 68 77 80 90 90 88 86 83 81
143 150 152 147 142 140 137 135 135 133 130 127 125 122 120 119 116 114 110 106 102 99 99 97 95 93 94 90 84 78 71 67 62 60 67 79 86 94 91 86 87 78 75
136 143 151 147 142 138 137 135 135 134 132 130 128 125 122 120 117 115 110 106 102 99 98 97 93 93 93 90 82 71 61 58 57 58 64 74 91 99 94 87 86 81 70
132 135 148 146 143 138 134 133 132 135 133 132 130 128 126 124 120 117 113 108 104 103 101 95 91 90 90 87 77 63 52 52 51 58 67 84 97 103 99 92 86 76 64
131 132 144 144 143 139 135 132 132 134 134 131 130 128 125 122 118 115 114 110 107 105 102 97 88 88 89 82 71 56 48 45 47 49 61 97 104 104 96 89 84 68 51
136 133 138 142 141 138 135 131 128 129 131 130 129 128 127 123 119 116 114 111 109 104 101 97 87 80 81 75 58 45 42 40 44 46 75 94 106 102 91 81 64 40 21
123 125 123 134 139 137 132 128 124 121 123 126 127 127 125 123 120 119 115 111 108 105 99 92 84 70 68 63 51 45 40 41 53 58 81 83 87 84 76 62 50 32 17
122 122 120 120 128 128 126 125 121 118 114 115 118 118 119 119 119 117 112 107 104 100 95 87 74 61 61 59 55 51 49 52 58 59 71 81 83 73 65 50 39 29 17
120 124 125 121 120 123 123 122 117 111 108 105 109 113 110 109 109 107 103 100 95 90 85 77 67 59 56 54 55 57 56 53 57 61 73 77 76 67 62 51 42 37 30
135 132 130 131 126 125 123 118 113 108 102 98 100 102 104 104 101 100 94 90 84 77 72 66 60 55 58 52 49 56 57 54 53 58 65 78 76 68 61 53 46 42 37
145 135 130 131 126 122 120 118 112 107 100 94 95 97 98 92 88 85 79 73 70 67 57 51 48 48 55 52 47 54 57 58 58 60 60 77 77 71 63 53 44 38 32
135 135 125 117 116 117 117 116 112 106 100 93 92 96 97 88 79 79 76 71 64 61 58 54 45 42 48 51 56 59 57 61 66 65 62 74 73 67 60 51 42 37 33
132 131 129 120 115 121 117 116 111 107 104 99 93 91 96 93 85 78 75 71 59 57 60 55 45 46 50 50 54 65 62 65 73 73 68 73 72 67 61 52 46 38 33
129 126 122 120 118 116 118 115 113 111 106 98 90 89 92 96 92 83 72 66 53 52 57 61 57 61 57 57 53 57 65 71 81 83 82 76 73 69 63 55 49 44 38
136 130 117 115 114 121 119 112 110 110 107 98 90 87 88 92 92 85 71 63 55 60 63 59 50 57 61 57 47 48 63 70 86 93 91 86 75 67 62 56 50 43 37
136 130 122 119 108 104 107 108 109 107 104 99 95 89 86 88 90 86 71 59 64 67 64 67 55 48 42 44 39 33 51 67 85 95 93 89 81 71 63 59 56 49 41
136 130 124 112 109 103 105 105 103 100 96 98 96 89 85 83 87 87 72 59 69 65 54 58 54 54 37 30 35 49 47 66 90 96 92 89 85 78 70 62 58 50 40
128 125 126 118 114 109 104 99 90 82 78 84 90 93 90 87 86 85 74 60 67 69 56 57 62 49 38 26 46 48 41 58 80 87 93 86 80 76 73 69 61 50 40
125 129 135 129 131 127 119 115 107 99 86 75 82 90 92 90 89 83 72 61 58 69 66 63 71 57 33 20 57 32 17 41 70 73 81 84 71 71 75 74 71 61 44
145 145 143 142 140 138 131 124 116 122 109 92 80 77 83 84 85 89 81 72 66 70 61 54 57 61 30 24 70 88 19 351 12 42 59 94 81 66 64 68 73 64 51
156 160 156 150 143 136 126 110 100 84 71 66 65 59 67 86 87 92 90 83 74 75 73 59 63 79 65 16 34 122 144 220 303 330 1 42 37 46 35 50 64 57 52
170 164 151 150 145 136 129 133 138 140 150 181 172 155 90 94 96 98 100 93 83 85 85 62 64 78 106 50 9 20 136 167 173 299 320 332 322 277 272 289 19 67 53
168 166 156 148 144 136 135 143 138 133 146 142 125 125 111 83 105 111 114 111 105 100 109 97 81 73 97 132 112 5 33 40 90 174 276 309 315 282 260 244 227 238 35
159 162 156 152 153 147 144 144 149 153 154 143 150 159 166 190 85 120 136 135 133 129 129 128 118 102 109 127 129 154 163 160 149 152 240 278 287 283 278 241 215 229 266
Height
1516 1519 1521 1523 1524 1526 1527 1527 1529 1530 1531 1532 1533 1534 1534 1535 1536 1536 1537 1538 1538 1538 1539 1539 1539 1539 1540 1540 1540 1540 1540 1540 1540 1540 1539 1539 1539 1539 1539 1539 1539 1539 1538
1514 1518 1520 1522 1524 1525 1526 1527 1528 1530 1531 1532 1533 1534 1535 1535 1536 1537 1537 1538 1538 1539 1539 1539 1539 1540 1540 1540 1540 1540 1540 1540 1540 1540 1540 1540 1540 1540 1540 1540 1540 1540 1539
1514 1517 1519 1522 1523 1524 1526 1527 1528 1529 1531 1532 1533 1534 1534 1535 1536 1537 1537 1538 1538 1539 1539 1539 1540 1540 1540 1540 1540 1540 1540 1540 1541 1540 1541 1540 1540 1540 1540 1540 1540 1540 1540
1513 1516 1518 1521 1522 1524 1525 1527 1528 1529 1530 1531 1532 1533 1534 1535 1536 1536 1537 1538 1538 1539 1539 1539 1540 1540 1540 1540 1540 1541 1541 1541 1541 1541 1541 1541 1541 1541 1541 1541 1541 1540 1540
1513 1516 1518 1520 1522 1523 1525 1527 1528 1529 1530 1531 1532 1533 1534 1535 1536 1536 1537 1537 1538 1538 1539 1539 1539 1540 1540 1540 1541 1541 1541 1541 1541 1541 1541 1541 1541 1541 1541 1541 1541 1541 1540
1512 1515 1518 1520 1521 1523 1525 1526 1527 1529 1530 1531 1532 1533 1534 1535 1535 1536 1536 1537 1537 1538 1538 1539 1539 1540 1540 1540 1541 1541 1541 1541 1541 1541 1541 1541 1541 1541 1541 1540 1540 1540 1540
1512 1514 1517 1519 1521 1523 1524 1525 1527 1528 1530 1531 1532 1533 1533 1534 1535 1535 1536 1536 1537 1537 1538 1538 1539 1539 1540 1540 1540 1540 1540 1540 1540 1540 1540 1540 1540 1541 1540 1540 1540 1540 1540
1511 1513 1516 1519 1521 1522 1524 1525 1526 1528 1529 1530 1531 1532 1533 1534 1534 1535 1536 1536 1536 1537 1537 1538 1538 1539 1539 1540 1540 1540 1540 1540 1540 1540 1540 1540 1540 1540 1540 1540 1539 1539 1539
1511 1513 1515 1518 1520 1521 1523 1524 1526 1527 1528 1530 1531 1532 1532 1533 1534 1535 1535 1536 1536 1537 1537 1537 1538 1538 1539 1539 1539 1539 1539 1539 1539 1539 1540 1540 1540 1540 1539 1539 1539 1538 1538
1510 1512 1514 1516 1518 1520 1522 1524 1525 1527 1528 1529 1530 1531 1532 1532 1533 1534 1534 1535 1536 1536 1537 1537 1537 1538 1538 1538 1539 1539 1539 1539 1539 1539 1539 1539 1539 1539 1538 1538 1538 1537 1537
1509 1510 1512 1514 1517 1519 1521 1523 1524 1526 1527 1528 1529 1530 1531 1532 1533 1533 1534 1534 1535 1536 1536 1536 1537 1537 1537 1537 1538 1538 1538 1538 1538 1538 1538 1538 1538 1538 1537 1537 1536 1536 1536
1507 1508 1511 1513 1515 1518 1520 1522 1523 1525 1526 1528 1529 1529 1530 1531 1532 1533 1533 1534 1534 1535 1535 1536 1536 1536 1536 1537 1537 1537 1537 1537 1537 1537 1537 1537 1537 1537 1536 1536 1535 1535 1534
1506 1507 1510 1512 1514 1517 1519 1521 1523 1524 1526 1527 1528 1529 1529 1530 1531 1532 1533 1533 1534 1534 1535 1535 1535 1535 1536 1536 1536 1536 1536 1536 1536 1536 1536 1536 1536 1536 1536 1535 1534 1534 1533
1505 1506 1509 1511 1514 1516 1518 1520 1522 1524 1525 1526 1527 1528 1529 1529 1530 1531 1532 1533 1533 1533 1534 1534 1535 1535 1535 1535 1535 1535 1535 1535 1535 1535 1535 1535 1535 1535 1534 1534 1533 1532 1532
1503 1505 1508 1510 1513 1515 1517 1520 1522 1523 1525 1526 1527 1528 1528 1529 1529 1530 1531 1531 1532 1533 1533 1534 1534 1534 1534 1534 1534 1534 1534 1534 1534 1534 1534 1534 1534 1534 1533 1532 1532 1531 1530
1503 1505 1508 1510 1513 1515 1517 1519 1521 1523 1524 1525 1527 1527 1528 1529 1529 1529 1530 1531 1531 1532 1532 1533 1533 1533 1533 1533 1533 1533 1533 1533 1533 1533 1533 1533 1533 1532 1532 1531 1530 1529 1529
1503 1505 1508 1510 1513 1514 1515 1518 1520 1522 1523 1525 1526 1527 1528 1528 1528 1529 1530 1530 1530 1531 1531 1531 1532 1532 1532 1532 1532 1532 1532 1532 1532 1532 1532 1532 1532 1531 1530 1530 1529 1528 1527
1504 1506 1508 1510 1512 1513 1514 1517 1519 1522 1523 1524 1525 1526 1527 1527 1528 1528 1529 1529 1529 1530 1530 1530 1530 1531 1531 1531 1531 1531 1531 1531 1531 1531 1531 1531 1530 1530 1529 1528 1528 1527 1526
1504 1506 1508 1510 1512 1513 1514 1516 1519 1521 1522 1524 1525 1526 1526 1527 1527 1528 1528 1528 1528 1529 1529 1529 1529 1530 1530 1530 1530 1530 1530 1530 1530 1530 1530 1529 1529 1528 1528 1527 1526 1525 1524
1505 1507 1509 1510 1512 1514 1514 1516 1518 1520 1522 1523 1524 1525 1525 1526 1527 1527 1527 1527 1527 1528 1528 1528 1528 1528 1528 1528 1528 1528 1528 1529 1529 1529 1528 1528 1528 1527 1526 1525 1524 1523 1522
1505 1507 1509 1510 1512 1514 1515 1516 1517 1519 1521 1522 1523 1524 1525 1525 1526 1526 1526 1526 1526 1527 1527 1527 1527 1527 1527 1527 1527 1527 1527 1527 1527 1527 1527 1527 1526 1525 1525 1524 1523 1522 1520
1505 1507 1509 1510 1512 1514 1515 1516 1517 1519 1520 1521 1522 1523 1524 1524 1525 1525 1525 1525 1525 1526 1526 1526 1525 1525 1525 1525 1525 1525 1525 1527 1525 1525 1525 1525 1524 1524 1523 1522 1521 1520 1518
1505 1507 1508 1510 1512 1513 1515 1516 1517 1519 1520 1521 1521 1522 1522 1523 1524 1524 1524 1524 1524 1524 1524 1524 1524 1524 1524 1524 1524 1524 1524 1523 1523 1524 1523 1523 1522 1522 1521 1520 1519 1518 1516
1504 1506 1507 1509 1511 1512 1514 1516 1517 1518 1519 1520 1521 1521 1521 1522 1522 1522 1523 1523 1523 1523 1523 1522 1522 1522 1522 1522 1522 1522 1522 1521 1522 1521 1521 1520 1520 1519 1519 1517 1516 1515 1514
1503 1504 1506 1509 1510 1512 1513 1515 1516 1517 1518 1519 1519 1520 1520 1520 1521 1521 1521 1521 1521 1521 1521 1521 1521 1521 1521 1520 1520 1520 1520 1519 1519 1519 1518 1518 1518 1517 1516 1515 1514 1513 1511
1502 1503 1505 1507 1509 1511 1512 1514 1515 1516 1517 1517 1518 1518 1518 1519 1519 1519 1519 1520 1520 1520 1520 1519 1519 1519 1519 1519 1518 1518 1518 1517 1516 1516 1515 1515 1514 1514 1513 1512 1511 1510 1508